When you browse on this site, cookies collect data to enhance your experience and personalize the content and advertising you see.
Visit our Privacy Policy to learn more. By continuing to use the site, you agree to this use of cookies and data.
  • In Spain
  • List of Countries
  • For 7 days
  • Water Temperature
  • Weather Map
  • Weather Widgets
  • user-avatar
    Login

    Hourly Weather Popovka 1-ya

    Today, 3 June, Wednesday

    Time Temperature Precipitation Wind Pressure Humidity
    00:00 +13°C° 2.8 mm 2 mps 733 mmHg 96%
    01:00 +13°C° 2.8 mm 1 mps 733 mmHg 96%
    02:00 +13°C° 0 mm 1 mps 733 mmHg 97%
    03:00 +13°C° 0.6 mm 1 mps 733 mmHg 97%
    04:00 +13°C° 0.6 mm 1 mps 733 mmHg 97%
    05:00 +12°C° 0.6 mm 2 mps 732 mmHg 97%
    06:00 +13°C° 0.3 mm 2 mps 732 mmHg 95%
    07:00 +13°C° 0.3 mm 2 mps 733 mmHg 94%
    08:00 +13°C° 0.3 mm 2 mps 733 mmHg 93%
    09:00 +14°C° 0 mm 2 mps 732 mmHg 89%
    10:00 +15°C° 0 mm 2 mps 732 mmHg 86%
    11:00 +16°C° 0 mm 2 mps 732 mmHg 82%
    12:00 +17°C° 0 mm 2 mps 732 mmHg 80%
    13:00 +17°C° 0 mm 2 mps 732 mmHg 78%
    14:00 +18°C° 0 mm 2 mps 732 mmHg 76%
    15:00 +18°C° 0.7 mm 2 mps 731 mmHg 79%
    16:00 +17°C° 0.7 mm 2 mps 731 mmHg 83%
    17:00 +16°C° 0.7 mm 2 mps 730 mmHg 87%
    18:00 +15°C° 1.1 mm 1 mps 730 mmHg 90%
    19:00 +14°C° 1.1 mm 1 mps 730 mmHg 93%
    20:00 +13°C° 1.1 mm 1 mps 730 mmHg 95%
    21:00 +13°C° 0.1 mm 2 mps 729 mmHg 95%
    22:00 +12°C° 0.1 mm 2 mps 729 mmHg 95%
    23:00 +11°C° 0.1 mm 3 mps 729 mmHg 95%

    Tomorrow, 4 June, Thursday

    Time Temperature Precipitation Wind Pressure Humidity
    00:00 +11°C° 0 mm 3 mps 729 mmHg 95%
    01:00 +10°C° 0 mm 3 mps 729 mmHg 95%
    02:00 +10°C° 0 mm 3 mps 729 mmHg 96%
    03:00 +10°C° 0 mm 3 mps 730 mmHg 95%
    04:00 +10°C° 0 mm 3 mps 730 mmHg 95%
    05:00 +11°C° 0 mm 3 mps 730 mmHg 95%
    06:00 +12°C° 0 mm 3 mps 730 mmHg 90%
    07:00 +14°C° 0 mm 3 mps 731 mmHg 85%
    08:00 +16°C° 0 mm 3 mps 731 mmHg 80%
    09:00 +17°C° 0.4 mm 3 mps 731 mmHg 77%
    10:00 +18°C° 0.4 mm 3 mps 731 mmHg 74%
    11:00 +18°C° 0.4 mm 3 mps 731 mmHg 72%
    12:00 +17°C° 2.2 mm 3 mps 731 mmHg 75%
    13:00 +17°C° 2.2 mm 4 mps 731 mmHg 79%
    14:00 +15°C° 2.2 mm 4 mps 731 mmHg 83%
    15:00 +15°C° 0.4 mm 4 mps 731 mmHg 83%
    16:00 +15°C° 0.4 mm 4 mps 732 mmHg 82%
    17:00 +16°C° 0.4 mm 3 mps 732 mmHg 81%
    18:00 +14°C° 0 mm 3 mps 732 mmHg 85%
    19:00 +13°C° 0 mm 3 mps 732 mmHg 89%
    20:00 +12°C° 0 mm 3 mps 732 mmHg 93%
    21:00 +12°C° 0 mm 3 mps 733 mmHg 94%
    22:00 +11°C° 0 mm 3 mps 733 mmHg 94%
    23:00 +11°C° 0 mm 3 mps 733 mmHg 94%

    Day after tomorrow, 5 June, Friday

    Time Temperature Precipitation Wind Pressure Humidity
    00:00 +11°C° 0 mm 4 mps 733 mmHg 94%
    01:00 +10°C° 0 mm 4 mps 733 mmHg 94%
    02:00 +10°C° 0 mm 4 mps 733 mmHg 94%
    03:00 +11°C° 0 mm 4 mps 733 mmHg 94%
    04:00 +10°C° 0 mm 5 mps 733 mmHg 93%
    05:00 +10°C° 0 mm 5 mps 733 mmHg 93%
    06:00 +11°C° 0.1 mm 6 mps 734 mmHg 89%
    07:00 +14°C° 0.1 mm 6 mps 734 mmHg 86%
    08:00 +15°C° 0.1 mm 6 mps 734 mmHg 83%
    09:00 +16°C° 0.5 mm 7 mps 734 mmHg 82%
    10:00 +16°C° 0.5 mm 7 mps 734 mmHg 80%
    11:00 +17°C° 0.5 mm 8 mps 734 mmHg 79%
    12:00 +16°C° 1.4 mm 7 mps 734 mmHg 81%
    13:00 +15°C° 1.4 mm 6 mps 734 mmHg 84%
    14:00 +14°C° 1.4 mm 6 mps 734 mmHg 87%
    15:00 +14°C° 0.2 mm 6 mps 734 mmHg 87%
    16:00 +15°C° 0.2 mm 6 mps 734 mmHg 87%
    17:00 +15°C° 0.2 mm 6 mps 734 mmHg 88%
    18:00 +14°C° 0 mm 5 mps 734 mmHg 90%
    19:00 +13°C° 0 mm 5 mps 735 mmHg 92%
    20:00 +13°C° 0 mm 4 mps 735 mmHg 94%
    21:00 +13°C° 0 mm 4 mps 735 mmHg 94%
    22:00 +13°C° 0 mm 4 mps 735 mmHg 95%
    23:00 +13°C° 0 mm 4 mps 735 mmHg 96%

    6 June, Saturday

    Time Temperature Precipitation Wind Pressure Humidity
    00:00 +13°C° 0 mm 3 mps 735 mmHg 97%
    01:00 +13°C° 0 mm 3 mps 735 mmHg 97%
    02:00 +14°C° 0 mm 3 mps 735 mmHg 97%
    03:00 +14°C° 0 mm 3 mps 735 mmHg 97%
    04:00 +14°C° 0 mm 3 mps 735 mmHg 97%
    05:00 +14°C° 0 mm 3 mps 735 mmHg 97%
    06:00 +17°C° 0 mm 3 mps 736 mmHg 94%
    07:00 +18°C° 0 mm 3 mps 736 mmHg 91%
    08:00 +20°C° 0 mm 4 mps 736 mmHg 87%
    09:00 +21°C° 0.6 mm 4 mps 736 mmHg 83%
    10:00 +22°C° 0.6 mm 5 mps 737 mmHg 78%
    11:00 +23°C° 0.6 mm 5 mps 737 mmHg 74%
    12:00 +23°C° 0.4 mm 6 mps 737 mmHg 74%
    13:00 +23°C° 0.4 mm 6 mps 737 mmHg 75%
    14:00 +24°C° 0.4 mm 7 mps 737 mmHg 75%
    15:00 +23°C° 0.1 mm 6 mps 737 mmHg 78%
    16:00 +23°C° 0.1 mm 6 mps 737 mmHg 81%
    17:00 +23°C° 0.1 mm 5 mps 737 mmHg 84%
    18:00 +21°C° 0 mm 5 mps 738 mmHg 86%
    19:00 +20°C° 0 mm 5 mps 738 mmHg 88%
    20:00 +19°C° 0 mm 4 mps 738 mmHg 90%
    21:00 +18°C° 0 mm 4 mps 739 mmHg 92%
    22:00 +18°C° 0 mm 4 mps 739 mmHg 93%
    23:00 +17°C° 0 mm 4 mps 739 mmHg 94%

    7 June, Sunday

    Time Temperature Precipitation Wind Pressure Humidity
    00:00 +17°C° 0 mm 4 mps 740 mmHg 94%
    01:00 +16°C° 0 mm 3 mps 740 mmHg 94%
    02:00 +16°C° 0 mm 3 mps 740 mmHg 94%
    03:00 +16°C° 0 mm 3 mps 740 mmHg 93%
    04:00 +17°C° 0 mm 3 mps 741 mmHg 92%
    05:00 +17°C° 0 mm 3 mps 741 mmHg 92%
    06:00 +18°C° 0 mm 3 mps 741 mmHg 88%
    07:00 +20°C° 0 mm 3 mps 742 mmHg 84%
    08:00 +21°C° 0 mm 3 mps 742 mmHg 81%
    09:00 +22°C° 0 mm 3 mps 742 mmHg 77%
    10:00 +25°C° 0 mm 4 mps 743 mmHg 72%
    11:00 +26°C° 0 mm 4 mps 743 mmHg 68%
    12:00 +26°C° 0 mm 5 mps 743 mmHg 68%
    13:00 +26°C° 0 mm 5 mps 743 mmHg 68%
    14:00 +26°C° 0 mm 5 mps 743 mmHg 68%
    15:00 +26°C° 0 mm 4 mps 742 mmHg 71%
    16:00 +25°C° 0 mm 4 mps 742 mmHg 75%
    17:00 +25°C° 0 mm 3 mps 742 mmHg 78%
    18:00 +24°C° 0 mm 3 mps 742 mmHg 82%
    19:00 +21°C° 0 mm 3 mps 742 mmHg 86%
    20:00 +20°C° 0 mm 3 mps 743 mmHg 90%
    21:00 +19°C° 0 mm 3 mps 743 mmHg 91%
    22:00 +19°C° 0 mm 3 mps 743 mmHg 92%
    23:00 +18°C° 0 mm 3 mps 743 mmHg 93%

    8 June, Monday

    Time Temperature Precipitation Wind Pressure Humidity
    00:00 +18°C° 0 mm 3 mps 743 mmHg 94%
    01:00 +17°C° 0 mm 3 mps 743 mmHg 94%
    02:00 +17°C° 0 mm 3 mps 743 mmHg 94%
    03:00 +18°C° 0 mm 3 mps 743 mmHg 94%
    04:00 +18°C° 0 mm 3 mps 743 mmHg 93%
    05:00 +18°C° 0 mm 3 mps 743 mmHg 93%
    06:00 +20°C° 0.2 mm 3 mps 743 mmHg 88%
    07:00 +21°C° 0.2 mm 4 mps 743 mmHg 84%
    08:00 +23°C° 0.2 mm 4 mps 743 mmHg 80%
    09:00 +25°C° 0.2 mm 4 mps 743 mmHg 76%
    10:00 +26°C° 0.2 mm 4 mps 743 mmHg 72%
    11:00 +26°C° 0.2 mm 4 mps 743 mmHg 68%
    12:00 +27°C° 0 mm 4 mps 743 mmHg 68%
    13:00 +27°C° 0 mm 4 mps 743 mmHg 67%
    14:00 +27°C° 0 mm 4 mps 743 mmHg 67%
    15:00 +27°C° 0 mm 3 mps 742 mmHg 70%
    16:00 +27°C° 0 mm 3 mps 742 mmHg 73%
    17:00 +26°C° 0 mm 2 mps 742 mmHg 76%
    18:00 +25°C° 0 mm 2 mps 742 mmHg 80%
    19:00 +23°C° 0 mm 2 mps 742 mmHg 84%
    20:00 +21°C° 0 mm 2 mps 742 mmHg 88%
    21:00 +20°C° 0 mm 2 mps 742 mmHg 89%
    22:00 +19°C° 0 mm 2 mps 742 mmHg 90%
    23:00 +19°C° 0 mm 2 mps 742 mmHg 92%
    Show more